{"data":{"norad_id":59795,"epoch":"2026-09-21T02:50:39.222528Z","epoch_age_seconds":120998,"freshness":"FRESH","line1":"1 59795U 24093P   26264.11850952  .00000532  00000+0  28859-4 0  9999","line2":"2 59795  43.0030 185.2243 0001396 272.3501  87.7191 15.27574365132588","mean_motion":15.27574365,"eccentricity":0.0001396,"inclination_deg":43.003,"raan_deg":185.2243,"arg_perigee_deg":272.3501,"mean_anomaly_deg":87.7191,"bstar":2.8859e-5,"rev_number":13258,"period_min":94.267096449998,"perigee_km":482.10814537419,"apogee_km":484.02379324322,"semimajor_km":6861.2029693087,"source":"CELESTRAK","updated_at":"2026-09-22T09:00:49.073685Z"}}